Vertical_Velocity
0 1 0 -0 -2 -2 -2 -1 -3 -5 -5 -5 -4 -4 -1 1 -2 -3 -7 -9 -6 1 -6 6 2 5 4 1 2 7 -1 -1 1 -1 -0 0 -0 2 -4 -3 -1 2 4 8 -1
-3 -2 0 -1 -1 -2 -3 -4 -3 -1 -2 0 -1 -1 -1 2 1 -1 -8 -1 -1 0 -1 -3 4 8 0 2 1 -2 -1 1 4 2 7 3 4 2 2 -4 -4 -0 3 4 1
-4 -2 -3 -2 -4 -3 -2 -1 -3 -6 -5 -4 -4 -4 -2 -3 -6 -11 4 -1 0 1 -1 4 5 3 5 7 -1 -1 -9 5 -1 2 4 3 2 -0 3 0 -6 2 2 4 5
-0 -2 -0 -1 -2 -1 -3 -4 -1 -4 -5 -4 -3 -4 -8 -2 -3 -7 -3 -2 -0 -2 -2 6 4 -0 1 -12 5 -7 5 0 -0 0 3 2 2 2 2 -3 4 -3 1 5 5
-1 -2 0 -1 -0 -1 -1 -2 -5 -5 -5 -3 -6 -4 1 -3 -1 8 -5 0 4 2 -6 1 2 16 -2 6 3 -2 13 -1 -1 -1 3 3 -0 1 3 1 5 2 -1 1 0
-4 -4 -4 -4 -1 -1 -3 -4 -4 -2 -3 -2 -2 -4 -5 -10 -4 -0 2 3 4 4 3 3 2 12 6 3 -6 7 8 6 -3 -2 0 4 4 0 0 2 5 5 0 -1 2
-0 1 1 -2 -2 -0 -3 -4 -3 -3 -3 -2 -5 -3 0 -4 -3 4 0 4 9 3 4 8 9 -0 10 9 5 10 2 7 -5 -1 -3 6 0 -1 -0 1 1 7 5 2 -1
-3 -1 -2 2 -1 -2 -2 -0 -2 -2 -3 -2 -3 -2 -2 -8 -8 -6 -4 2 3 4 6 6 -2 10 -1 6 4 2 7 4 -1 -0 -5 -2 -9 8 1 1 5 2 4 4 3
-2 -2 -3 -3 -5 -4 -4 -1 -1 -7 1 -1 -3 -4 -2 -7 -2 -1 -3 -1 2 1 3 4 18 7 16 -1 8 4 0 -0 9 3 10 -2 -2 12 3 -1 1 4 2 2 2
-2 -2 -1 -1 -5 -5 -3 -5 -1 7 -15 -2 -1 -2 -2 -0 -1 -1 -2 3 4 1 -0 6 -4 -4 5 9 -16 -5 2 -0 3 -4 -2 3 3 -3 3 3 2 3 1 1 1
-3 -4 -0 -2 -5 -8 -8 -7 2 -7 12 -5 -3 3 0 2 -2 0 -3 -2 4 4 0 4 6 -7 6 1 9 11 1 1 -0 -3 5 -0 1 -2 -0 4 5 -1 1 -0 -1
-6 -4 -3 -4 -5 -5 -7 -11 -12 -9 -25 2 -3 -1 0 -2 -2 -4 -2 3 -4 -5 9 4 -7 12 1 10 5 -3 -1 -1 6 3 2 2 -1 -2 -9 -3 -1 1 -0 0 0
-3 -2 -6 -4 -3 -6 -9 -3 1 -3 -5 4 -2 0 1 -2 -2 -1 0 2 -0 -1 2 -1 24 -3 -2 -3 -0 8 -5 -2 5 -1 -2 1 -2 -3 -2 -1 -2 0 1 -2 2
-0 -1 -5 -4 -4 -2 -2 -7 -5 -2 2 -0 -2 -3 -1 -3 -3 -0 0 1 2 6 -0 10 1 2 3 5 8 2 1 4 -2 -1 4 -7 0 -2 -1 0 -2 -2 -1 1 0
-2 -1 -4 -10 -4 -5 -5 -3 -4 1 -0 -0 -2 1 7 0 -3 -1 3 2 4 -1 0 10 -9 -9 2 -3 -16 23 -24 3 2 1 -2 -1 1 4 2 -1 -2 -0 -3 -1 1
-4 -4 0 -2 -7 -2 -3 -0 -2 -0 1 -5 -1 -2 -2 0 -1 0 2 9 2 12 -2 2 6 15 1 4 3 3 5 -1 -1 7 5 -3 0 2 0 -2 3 -1 1 0 1
-3 -5 -3 -6 -5 -2 -3 -4 -4 3 6 -4 -14 -5 2 -5 -2 2 6 13 12 6 3 8 0 -4 2 1 3 0 2 4 11 8 -0 1 2 4 2 1 1 3 0 1 1
-5 -4 -3 -3 -0 -3 0 -6 -1 1 -0 1 -5 2 2 -13 -0 0 1 12 11 1 -2 5 11 3 2 3 -3 -1 2 -0 -1 -1 2 -0 -3 2 -1 1 -0 -1 -0 1 0
-3 -2 -5 1 -3 -5 -4 -6 -0 0 0 -4 -7 -1 0 0 9 -2 2 2 2 3 6 -1 -1 2 -0 4 4 -7 -0 -1 -4 -2 2 -2 -2 -1 0 1 -1 -1 1 2 1
-4 -2 -4 -3 -6 -6 -1 -3 -3 1 -3 1 11 1 0 -8 -3 -1 -2 3 -3 5 2 -0 -2 0 0 -1 9 3 -0 2 -0 0 1 2 -1 7 -0 -2 -1 0 -1 -0 -0
-3 -3 -3 -4 -7 -0 -13 -3 6 2 -5 3 2 2 3 0 3 2 0 3 1 -1 10 1 2 1 1 3 1 3 -1 -2 -3 -1 1 0 6 -1 -1 1 1 0 -0 0 -0
-1 -3 -3 -2 -3 -9 -6 -3 8 -2 -3 -1 -1 2 1 -1 2 4 2 4 4 1 1 1 1 1 0 -1 -1 1 0 -6 7 -1 -2 -1 5 -0 1 1 1 1 0 0 0
-5 -4 -3 -8 -11 -5 0 2 3 -7 -1 -2 0 0 3 -0 1 -2 -1 1 4 3 1 3 1 -0 -1 -0 1 -0 -0 -0 -3 -2 -1 2 6 1 2 0 1 1 0 0 0
-4 -5 -6 -9 -1 -4 -7 -0 -1 -4 1 1 2 -1 0 -0 2 -1 0 -1 0 -1 2 3 -0 -2 1 -1 -1 -2 -0 -1 -2 -1 -2 -1 -0 3 2 2 1 -0 -1 -0 -0
-4 -1 -7 -5 -4 -4 -3 2 -4 -9 5 0 3 1 -2 -4 -2 -0 2 2 1 -1 -1 1 1 -0 1 0 0 0 1 -0 -2 -0 1 1 1 1 2 1 1 1 0 1 1
-3 -0 -2 -1 -5 -2 -0 4 -8 -1 0 3 -1 2 -1 0 1 -4 1 -0 -1 3 -2 -1 1 1 0 1 -0 -0 0 1 1 2 0 -1 1 -1 -0 -1 -1 -0 -1 -2 -3
-1 -5 -1 0 -3 -4 -1 2 -7 -5 4 -2 -1 -1 1 -0 -0 1 0 1 0 -2 -2 -2 -0 0 1 -1 -0 1 0 1 1 2 0 0 -3 -1 -1 -2 -3 -2 -2 -2 -2
Height
3127 3124 3122 3119 3115 3111 3108 3102 3098 3095 3090 3086 3082 3078 3074 3073 3072 3071 3071 3071 3070 3068 3066 3067 3068 3071 3072 3073 3074 3077 3077 3074 3079 3081 3083 3084 3088 3090 3093 3095 3097 3098 3100 3104 3105
3125 3121 3117 3114 3110 3105 3100 3096 3092 3088 3084 3079 3075 3070 3066 3064 3063 3063 3060 3058 3058 3058 3057 3060 3060 3064 3064 3064 3066 3068 3067 3071 3075 3077 3079 3080 3083 3086 3088 3091 3094 3096 3098 3100 3102
3122 3117 3113 3109 3103 3100 3096 3091 3086 3082 3077 3071 3066 3061 3058 3055 3054 3052 3049 3048 3050 3048 3048 3050 3053 3053 3055 3056 3058 3059 3057 3068 3068 3072 3074 3076 3078 3080 3083 3085 3089 3093 3096 3098 3100
3117 3112 3108 3104 3100 3095 3090 3084 3080 3077 3071 3065 3059 3054 3051 3049 3051 3042 3040 3039 3040 3038 3039 3040 3042 3043 3045 3045 3051 3054 3055 3058 3063 3066 3069 3072 3074 3076 3078 3080 3084 3088 3092 3095 3098
3111 3107 3103 3100 3095 3091 3085 3079 3076 3070 3064 3058 3051 3046 3042 3038 3038 3035 3029 3027 3028 3028 3029 3032 3033 3037 3037 3040 3044 3046 3051 3053 3059 3062 3065 3067 3069 3072 3074 3077 3080 3083 3087 3091 3094
3108 3104 3099 3095 3090 3086 3080 3074 3069 3062 3054 3048 3043 3037 3033 3029 3024 3021 3019 3017 3016 3018 3020 3024 3026 3030 3032 3035 3037 3041 3046 3048 3052 3057 3061 3064 3065 3068 3070 3072 3075 3078 3083 3087 3091
3105 3100 3096 3091 3086 3081 3074 3068 3061 3053 3046 3040 3034 3027 3021 3020 3014 3010 3007 3008 3010 3009 3011 3016 3021 3024 3027 3030 3032 3038 3041 3043 3045 3052 3055 3059 3061 3062 3066 3070 3072 3075 3078 3082 3087
3101 3097 3092 3086 3080 3074 3067 3061 3054 3046 3038 3032 3026 3018 3013 3010 3008 3005 3002 3001 3001 3003 3006 3009 3014 3019 3023 3027 3029 3033 3037 3038 3040 3044 3049 3055 3055 3061 3061 3066 3069 3071 3074 3078 3083
3097 3092 3087 3081 3074 3066 3060 3054 3047 3040 3032 3025 3020 3015 3010 3007 3004 3001 2998 2995 2996 2996 2997 3003 3008 3013 3016 3021 3026 3028 3027 3031 3037 3039 3043 3046 3052 3055 3055 3060 3064 3067 3071 3074 3078
3092 3087 3082 3076 3069 3061 3053 3047 3042 3037 3026 3021 3015 3015 3009 3005 3000 2996 2992 2988 2990 2992 2994 2998 3002 3006 3007 3012 3012 3018 3024 3028 3031 3034 3037 3041 3046 3048 3050 3054 3058 3061 3064 3068 3073
3088 3084 3078 3072 3064 3055 3048 3040 3034 3025 3021 3018 3016 3013 3007 3002 2996 2991 2986 2982 2984 2988 2990 2994 2997 2995 2998 3002 3013 3017 3021 3025 3029 3030 3034 3037 3041 3044 3047 3049 3052 3056 3058 3062 3067
3084 3079 3073 3067 3060 3052 3045 3036 3030 3024 3016 3013 3013 3009 3004 2998 2994 2990 2986 2984 2983 2984 2989 2992 2991 2994 2999 3003 3008 3013 3017 3022 3026 3028 3032 3033 3036 3039 3041 3044 3047 3050 3053 3057 3061
3080 3075 3069 3062 3055 3049 3041 3035 3027 3020 3014 3013 3012 3007 3002 2998 2991 2989 2986 2982 2981 2983 2985 2988 2986 2989 2997 3002 3004 3009 3013 3019 3024 3026 3028 3030 3032 3032 3035 3037 3041 3045 3048 3051 3056
3076 3071 3065 3058 3052 3042 3037 3030 3023 3017 3010 3012 3010 3006 3002 2996 2989 2986 2984 2982 2980 2981 2984 2988 2986 2990 2996 3000 3005 3006 3011 3017 3021 3025 3026 3028 3026 3026 3028 3032 3036 3041 3044 3046 3049
3072 3066 3060 3052 3046 3040 3034 3026 3020 3015 3011 3012 3010 3005 3001 2997 2990 2985 2982 2979 2980 2980 2984 2985 2986 2991 2995 2999 3003 3006 3010 3015 3019 3022 3025 3025 3027 3021 3022 3025 3030 3035 3040 3043 3047
3069 3063 3056 3050 3045 3037 3030 3023 3019 3018 3011 3010 3008 3003 2999 2994 2990 2985 2981 2979 2979 2979 2982 2985 2987 2992 2993 2997 3002 3005 3008 3013 3018 3021 3021 3020 3023 3017 3019 3021 3027 3029 3035 3040 3044
3067 3060 3051 3045 3040 3034 3027 3022 3020 3017 3015 3013 3007 3003 2999 2994 2989 2984 2980 2978 2978 2980 2983 2985 2988 2990 2994 2996 2999 3003 3007 3012 3016 3017 3011 3014 3020 3016 3016 3018 3021 3025 3030 3035 3040
3063 3057 3049 3043 3037 3031 3025 3021 3019 3020 3014 3012 3008 3004 3001 2995 2990 2985 2981 2979 2978 2980 2982 2985 2989 2989 2990 2994 2996 3002 3005 3003 3000 3003 3008 3014 3014 3011 3012 3016 3018 3020 3025 3030 3034
3059 3053 3047 3041 3035 3030 3026 3022 3024 3021 3016 3012 3008 3005 3002 2998 2994 2987 2985 2982 2981 2982 2983 2985 2987 2989 2990 2993 2997 2999 3002 3004 3003 3006 3007 3009 3010 3010 3010 3012 3016 3018 3021 3025 3030
3055 3049 3044 3038 3032 3028 3025 3022 3021 3020 3015 3012 3010 3007 3004 2999 2995 2991 2988 2985 2983 2982 2984 2985 2988 2989 2991 2993 2992 2997 3001 3004 3002 3005 3003 3007 3008 3007 3008 3010 3012 3016 3019 3022 3026
3052 3045 3041 3036 3031 3029 3026 3024 3019 3019 3016 3013 3011 3008 3006 3002 2998 2995 2992 2989 2985 2982 2983 2985 2987 2992 2993 2993 2994 2997 2998 3002 3003 3004 3001 3000 3007 3007 3007 3008 3010 3014 3018 3021 3025
3048 3044 3038 3035 3034 3026 3026 3023 3020 3018 3016 3014 3013 3010 3006 3003 2999 2997 2994 2991 2986 2984 2984 2986 2988 2990 2992 2993 2994 2996 2998 3001 3002 3006 3005 3006 3009 3007 3006 3007 3010 3014 3018 3022 3025
3045 3041 3037 3033 3030 3028 3027 3024 3019 3018 3015 3013 3012 3011 3008 3004 3002 2999 2996 2993 2990 2986 2986 2987 2988 2991 2993 2996 2995 2996 2998 3000 3002 3003 3005 3005 3009 3008 3008 3010 3012 3016 3019 3022 3024
3043 3039 3036 3032 3030 3027 3025 3022 3019 3019 3016 3014 3012 3010 3007 3005 3003 3000 2998 2995 2992 2989 2987 2987 2987 2988 2989 2989 2991 2993 2995 2998 3001 3004 3005 3007 3008 3009 3010 3012 3014 3016 3018 3021 3022
3041 3037 3035 3034 3031 3027 3024 3021 3018 3018 3017 3014 3013 3010 3007 3005 3002 3000 2998 2996 2994 2991 2989 2988 2988 2989 2989 2989 2990 2991 2994 2997 3000 3002 3004 3006 3008 3009 3011 3012 3013 3014 3016 3017 3017
3042 3039 3034 3032 3031 3029 3024 3021 3018 3018 3016 3013 3011 3009 3007 3005 3004 3000 2998 2997 2994 2993 2991 2990 2990 2990 2990 2990 2991 2992 2993 2995 2998 3001 3003 3005 3007 3008 3009 3010 3011 3011 3012 3012 3012
3038 3037 3034 3032 3029 3028 3025 3021 3019 3017 3015 3012 3010 3007 3006 3004 3002 3000 2998 2996 2994 2993 2991 2991 2991 2991 2991 2991 2991 2993 2993 2993 2996 2998 3001 3004 3005 3005 3005 3005 3005 3005 3006 3005 3005